User: anonymous   Login
Location: Holyhead Bay
(53.3667°N, 4.6667°W)
Time: 04:43:32
(UTC+00:00)
Language:

deb Agena D - Orbit

View from above orbital plane
View from above orbital plane
View from above satellite
View from above satellite

Ground track
Ground track

The orbit data is extracted from the following two-line orbital elements,

1 04164U 69082AG  21165.37030445  .00000308  00000-0  15768-3 0  9992
2 04164  70.0825 287.8767 0040310 137.0643 223.3636 14.23779269649932
Epoch (UTC): 14 June 2021 08:53:14
Eccentricity: 0.0040310
inclination: 70.0825°
perigee height: 783 km
apogee height: 841 km
right ascension of ascending node: 287.8767°
argument of perigee: 137.0643°
revolutions per day: 14.23779269
mean anomaly at epoch: 223.3636°
orbit number at epoch: 64993

The dashed part of the orbit path shows where the satellite is in the earth's shadow,  

DLR